Regional Weather Roundup
Issued by NWS

Home | Current Version | Previous Version | Graphics & Text | Print | Product List | Glossary Off
Versions: 1 2 3 4 5 6 7 8 9 10 11 12 13 14 15 16 17 18 19 20 21 22 23 24 25 26 27 28 29 30 31 32 33 34 35 36 37 38 39 40 41 42 43 44 45 46 47 48 49 50

000
ASUS43 KOAX 310010
RWRNE

WEATHER ROUNDUP FOR NEBRASKA
NATIONAL WEATHER SERVICE OMAHA NE
700 PM CDT TUE AUG 30 2016

NOTES: SATELLITE DATA IS BEING USED TO AUGMENT CLOUD COVER ABOVE
       12000 FEET.
       "FAIR" INDICATES FEW OR NO CLOUDS BELOW 12,000 FEET WITH NO
       SIGNIFICANT WEATHER AND/OR OBSTRUCTIONS TO VISIBILITY.

  * THESE STATIONS DO NOT REPORT WEATHER SUCH AS RAIN...SNOW OR FOG.

NEZ001>004-019>022-054>056-310100-
NEBRASKA PANHANDLE

CITY           SKY/WX    TMP DP  RH WIND       PRES   REMARKS
SCOTTSBLUFF    MOSUNNY   82  52  35 SE8       30.21S
6HR MIN TEMP:  79; 6HR MAX TEMP:  86;

ALLIANCE       PTSUNNY   78  58  49 SE22G33   30.22R
6HR MIN TEMP:  78; 6HR MAX TEMP:  83;

CHADRON        MOSUNNY   87  49  26 SE10      30.16S
6HR MIN TEMP:  81; 6HR MAX TEMP:  90;

KIMBALL        SUNNY     75  56  52 SE14      30.27S
SIDNEY         SUNNY     76  59  55 E10       30.26F
6HR MIN TEMP:  66; 6HR MAX TEMP:  82; 6HR PCP:  0.09;

$$

NEZ057>060-069>072-079>082-310100-
SOUTHWEST NEBRASKA

CITY           SKY/WX    TMP DP  RH WIND       PRES   REMARKS
NORTH PLATTE   CLOUDY    76  64  66 SE8       30.20S
6HR MIN TEMP:  76; 6HR MAX TEMP:  81;

IMPERIAL       CLOUDY    73  61  65 SE8       30.22R
6HR MIN TEMP:  72; 6HR MAX TEMP:  76;

LEXINGTON      PTSUNNY   74  65  72 CALM      30.19S
MCCOOK         CLOUDY    73  65  75 E8        30.19R
6HR MIN TEMP:  73; 6HR MAX TEMP:  77;

OGALLALA       MOSUNNY   76  61  58 SE7       30.21R
$$

NEZ005>010-023>029-035>040-094-310100-
NORTH CENTRAL NEBRASKA

CITY           SKY/WX    TMP DP  RH WIND       PRES   REMARKS
VALENTINE      CLOUDY    86  55  34 E9        30.16R
6HR MIN TEMP:  82; 6HR MAX TEMP:  90;

AINSWORTH      SUNNY     78  65  65 SE7       30.18S
BROKEN BOW     CLOUDY    74  66  76 CALM      30.19S
6HR MIN TEMP:  74; 6HR MAX TEMP:  79;

O`NEILL        MOSUNNY   82  64  54 SE8       30.17S
ORD            CLOUDY    77  66  68 E3        30.16S
6HR MIN TEMP:  76; 6HR MAX TEMP:  81;

THEDFORD       MOSUNNY   81  59  47 SE8       30.19F
$$

NEZ041-046>049-061>064-073>077-083>087-310100-
SOUTH CENTRAL NEBRASKA

CITY           SKY/WX    TMP DP  RH WIND       PRES   REMARKS
GRAND ISLAND   CLOUDY    74  67  78 E6        30.17S
6HR MIN TEMP:  71; 6HR MAX TEMP:  77; 6HR PCP:  0.11;

AURORA         CLOUDY    74  71  91 CALM      30.17S
HASTINGS       MOSUNNY   72  66  81 NE5       30.18R
6HR MIN TEMP:  72; 6HR MAX TEMP:  79;

HEBRON         CLOUDY    76  70  80 E3        30.14F
HOLDREGE       PTSUNNY   72  67  83 CALM      30.18S
KEARNEY *      PTSUNNY   73  66  78 NE3       30.17S
YORK           CLOUDY    73  68  83 NE6       30.16F
$$

NEZ011>018-030>034-042>045-310100-
NORTHEAST NEBRASKA

CITY           SKY/WX    TMP DP  RH WIND       PRES   REMARKS
NORFOLK        PTSUNNY   77  67  71 E5        30.15F
6HR MIN TEMP:  75; 6HR MAX TEMP:  81;

ALBION         CLOUDY    75  68  77 E6        30.17S
BLAIR          PTSUNNY   75  70  83 NE3       30.15S
FREMONT        CLOUDY    76  69  78 CALM      30.15F
TEKAMAH        CLOUDY    77  71  82 CALM      30.14S
6HR MIN TEMP:  75; 6HR MAX TEMP:  80;

WAYNE          MOSUNNY   77  71  83 E5        30.15F
$$

NEZ050>053-065>068-078-088>093-310100-
SOUTHEAST NEBRASKA

CITY           SKY/WX    TMP DP  RH WIND       PRES   REMARKS
LINCOLN        CLOUDY    75  69  81 N6        30.15S
6HR MIN TEMP:  75; 6HR MAX TEMP:  82;

OMAHA EPPLEY   PTSUNNY   77  70  79 N3        30.13F
6HR MIN TEMP:  76; 6HR MAX TEMP:  81;

BEATRICE       LGT RAIN  73  71  92 N5        30.13F
FALLS CITY     CLOUDY    78  71  79 N3        30.11S
6HR MIN TEMP:  77; 6HR MAX TEMP:  83;

NEBRASKA CITY  PTSUNNY   76  70  82 N3        30.14S
PLATTSMOUTH    CLOUDY    76  70  81 CALM      30.14F
$$

NEZ044-045-051>053-067-310100-
OMAHA AREA

CITY           SKY/WX    TMP DP  RH WIND       PRES   REMARKS
OMAHA EPPLEY   PTSUNNY   77  70  79 N3        30.13F
6HR MIN TEMP:  76; 6HR MAX TEMP:  81;

BLAIR          PTSUNNY   75  70  83 NE3       30.15S
FREMONT        CLOUDY    76  69  78 CALM      30.15F
MILLARD        CLOUDY   N/A N/A N/A CALM      30.13F
OFFUTT AFB     CLOUDY    77  69  77 N5        30.13S
PLATTSMOUTH    CLOUDY    76  70  81 CALM      30.14F
WAHOO          FAIR      75  70  86 CALM      30.14F
$$




USA.gov is the U.S. government's official web portal to all federal, state and local government web resources and services.